Regional Weather Roundup
Issued by NWS Cleveland, OH

Home | Current Version | Previous Version | Text Only | Print | Product List | Glossary Off
Versions: 1 2 3 4 5 6 7 8 9 10 11 12 13 14 15 16 17 18 19 20 21 22 23 24 25 26 27 28 29 30 31 32 33 34 35 36 37 38 39 40 41 42 43 44 45 46 47 48 49 50

000
ASUS41 KCLE 190910
RWRCLE
OHIO REGIONAL WEATHER ROUNDUP
NATIONAL WEATHER SERVICE WILMINGTON, OH
500 AM EDT SUN APR 19 2015

NOTE: "FAIR" INDICATES FEW OR NO CLOUDS BELOW 12,000 FEET WITH NO
SIGNIFICANT WEATHER AND/OR OBSTRUCTIONS TO VISIBILITY.

OHZ001>008-015>018-024>027-034-035-043-044-191000-
   NORTHWEST OHIO

CITY           SKY/WX    TMP DP  RH WIND       PRES   REMARKS
DEFIANCE       CLOUDY    50  32  50 NE8       30.01S
FINDLAY        CLOUDY    50  35  56 E14       29.98F
TOLEDO EXPRESS PTCLDY    48  32  53 E22G29    30.02F
TOLEDO EXEC    PTCLDY    48  33  56 E13G21    30.05F
LIMA           MOCLDY    50  38  63 E12       29.97F
$$

OHZ009>014-019>023-028>033-038-089-191000-
   NORTHEAST OHIO

CITY           SKY/WX    TMP DP  RH WIND       PRES   REMARKS
CLE-HOPKINS    MOCLDY    50  26  39 E8        30.07S
CLE-LAKEFRONT  MOCLDY    49  37  63 E3        30.05S
CUY CO. ARPT   NOT AVBL
LORAIN-ELYRIA  MOCLDY    45  35  68 E7        30.05R
ASHTABULA      PTCLDY    43  24  47 E3        30.09F
AKRON-CANTON   CLOUDY    51  29  42 E12       30.04S
WOOSTER        CLOUDY    50  33  52 E9        30.03F
MANSFIELD      CLOUDY    53  33  46 E8        30.01F
YOUNGSTOWN     MOCLDY    48  27  44 E10       30.06S
$$

OHZ042-051>053-060>062-070>072-077>081-191000-
  SOUTHWEST OHIO

CITY           SKY/WX    TMP DP  RH WIND       PRES   REMARKS
CINC-COVINGTON CLOUDY    64  45  49 E13       29.86F
CINC-LUNKEN    CLOUDY    61  48  62 NE9       29.87F
HAMILTON       CLOUDY    59  48  67 E7        29.89F
DAYTON         CLOUDY    58  41  53 E12       29.92F
WRIGHT-PAT AFB CLOUDY    58  41  54 NE7       29.91F
DAYTON GENERAL CLOUDY    59  44  57 E13       29.89F
WILMINGTON     MOCLDY    55  45  68 NE12      29.90F
$$

OHZ036-037-039>041-045>050-054>059-063>069-073>076-082>088-191000-
  CENTRAL AND SOUTHEAST OHIO

CITY           SKY/WX    TMP DP  RH WIND       PRES   REMARKS
COLUMBUS       MOCLDY    59  39  47 E9        29.94F
OSU AIRPORT    MOCLDY    54  39  57 NE8       29.95F
BOLTON FIELD   MOCLDY    58  41  53 NE7       29.95F
RICKENBACK AFB MOCLDY    56  42  60 NE9       29.93F
NEWARK         PTCLDY    57  39  51 CALM      29.96F
MARION         MOCLDY    51  36  56 E8        29.99S
LANCASTER      PTCLDY    55  43  63 CALM      29.95F
ZANESVILLE     MOCLDY    57  39  51 NE6       29.96F
NEW PHILLY     CLOUDY    57  37  47 CALM      30.02F
$$



USA.gov is the U.S. government's official web portal to all federal, state and local government web resources and services.